Location: Ostrava
(49.8330°N, 18.2830°E)
Time: 23:36:00
(UTC+02:00)

NOAA 19 - Visible Passes

Search period start: 29 August 2016 00:00
Search period end: 08 September 2016 00:00
Orbit: 842 x 862 km, 99.0° (Epoch: 29 August)

Date Brightness Start Highest point End Pass type
(mag) Time Alt. Az. Time Alt. Az. Time Alt. Az.
29 Aug 7.6 02:31:57 10° NE 02:35:12 16° E 02:38:26 10° ESE visible
29 Aug 5.2 04:11:06 10° NNE 04:16:40 89° ESE 04:21:29 14° SSW visible
30 Aug 7.7 02:21:19 10° ENE 02:23:36 12° E 02:25:53 10° ESE visible
30 Aug 5.4 03:59:42 10° NNE 04:05:15 74° ESE 04:09:52 15° S visible
31 Aug 5.6 03:48:20 10° NNE 03:53:49 61° ESE 03:58:15 16° S visible
01 Sep 6.0 03:36:59 10° NNE 03:42:23 50° E 03:46:37 16° S visible
01 Sep 6.1 05:18:04 10° N 05:22:53 31° WNW 05:27:41 10° WSW visible
02 Sep 6.3 03:25:41 10° NNE 03:30:55 41° E 03:35:00 16° SSE visible
02 Sep 5.9 05:06:31 10° N 05:11:34 37° WNW 05:16:37 10° SW visible
03 Sep 6.6 03:14:25 10° NNE 03:19:26 33° E 03:23:23 15° SSE visible
03 Sep 5.7 04:55:01 10° N 05:00:15 45° WNW 05:05:24 10° SW visible
04 Sep 6.9 03:03:14 10° NE 03:07:56 27° E 03:11:46 14° SE visible
04 Sep 5.4 04:43:31 10° N 04:48:55 54° WNW 04:53:47 13° SW visible
05 Sep 7.2 02:52:06 10° NE 02:56:23 23° E 03:00:07 12° SE visible
05 Sep 5.3 04:32:03 10° N 04:37:34 66° WNW 04:42:09 15° SSW visible
06 Sep 7.4 02:41:03 10° NE 02:44:51 18° E 02:48:30 10° SE visible
06 Sep 5.2 04:20:37 10° NNE 04:26:11 79° WNW 04:30:32 17° SSW visible
07 Sep 7.6 02:30:11 10° NE 02:33:16 15° E 02:36:21 10° ESE visible
07 Sep 5.2 04:09:12 10° NNE 04:14:47 86° ESE 04:18:54 19° SSW visible
